#timestamp,LO_Frequency,Hit,StdDev 
1550365215.4,286046998.8,N
1550365235.3,286047005.8,P
1550365255.1,286047005.3,N
1550365256.0,286047005.3,N
1550365275.8,286047005.4,N
1550365295.7,286047005.9,N
1550365315.5,286047003.5,N
1550365335.3,286047003.6,N
1550365355.2,286047003.1,N
1550365375.0,286047004.8,N
1550365375.9,286047004.8,N
1550365395.8,286047003.7,N
1550365415.6,286047004.9,N
1550365435.4,286047004.9,N
1550365455.3,286047006.7,Y
1550365475.1,286046998.1,P
1550365495.9,286046996.8,N
1550365515.7,286046999.0,N
1550365535.5,286047000.1,N
1550365555.4,286047001.9,N
1550365575.2,286047002.6,N
1550365595.1,286047002.6,N
1550365596.0,286047002.6,N
1550365615.8,286047004.3,N
1550365635.6,286047001.7,N
1550365655.5,286047002.7,N
1550365675.3,286047000.8,N
1550365695.1,286046998.4,N
1550365715.9,286047000.0,N
1550365735.7,286047002.2,N
1550365755.6,286046998.6,N
1550365775.4,286046999.7,N
1550365795.2,286047000.3,N
1550365815.1,286046998.7,N
1550365816.0,286046998.7,N
1550365835.8,286046999.5,N
1550365855.6,286047000.9,N
1550365875.5,286046999.8,N
1550365895.3,286047002.2,N
1550365915.2,286046998.3,N
1550365935.0,286046997.8,N
1550365935.9,286046997.8,N
1550365955.7,286047000.4,N
1550365975.6,286047000.0,N
1550365995.4,286047001.2,N
1550366015.3,286047000.2,N
1550366035.1,286047000.0,N
1550366055.8,286046996.6,N
1550366075.7,286046995.5,N
1550366095.5,286046997.1,N
1550366115.4,286046999.1,N
1550366135.2,286046999.0,N
1550366155.0,286047001.5,N
1550366155.9,286047001.5,N
1550366175.8,286047005.7,Y
1550366195.6,286047001.4,P
1550366215.5,286047002.7,P
1550366235.3,286047002.5,N
1550366255.1,286047004.4,Y
1550366275.9,286047002.6,P
1550366295.7,286047000.6,N
1550366315.6,286047000.7,N
1550366335.4,286046999.8,N
1550366355.2,286047002.8,N
1550366375.1,286047002.5,N
1550366376.0,286047002.5,N
1550366395.8,286047001.5,N
1550366415.6,286047000.7,N
1550366435.5,286046998.5,N
1550366455.3,286046998.4,N
1550366475.2,286047001.2,N
1550366495.9,286047000.4,N
1550366515.7,286046999.0,N
1550366535.6,286046999.2,N
1550366555.4,286047000.2,N
1550366575.2,286047004.1,N
1550366595.1,286046999.9,N
1550366596.0,286046999.9,N
1550366615.8,286046997.1,N
1550366635.7,286046997.8,N
1550366655.5,286046999.2,N
1550366675.3,286046998.9,N
1550366695.2,286046998.7,N
1550366715.0,286046997.7,N
1550366715.9,286046997.7,N
1550366735.8,286046995.1,N
1550366755.6,286046996.5,N
1550366775.4,286047001.1,N
1550366795.3,286047002.4,N
1550366815.1,286047000.2,N
1550366835.9,286047000.1,N
1550366855.7,286047000.3,N
1550366875.5,286047000.3,N
1550366895.4,286047000.9,N
1550366915.2,286046998.4,N
1550366935.1,286047002.8,N
1550366936.0,286047002.8,N
1550366955.9,286047000.0,N
1550366975.7,286047003.5,N
1550366995.6,286047002.0,N
1550367015.4,286047002.4,N
1550367035.2,286046999.7,N
1550367055.1,286047002.4,N
1550367056.0,286047002.4,N
1550367075.8,286047003.2,N
1550367095.7,286047004.0,N
1550367115.5,286046998.5,N
1550367135.3,286046997.5,N
1550367155.2,286046996.2,N
1550367175.0,286046993.7,N
1550367175.9,286046993.7,N
1550367195.8,286046993.3,N
1550367215.6,286046995.1,N
1550367235.4,286046999.1,N
1550367255.3,286046999.8,N
1550367275.1,286047001.7,N
1550367295.8,286047002.6,N
1550367315.7,286046999.7,N
1550367335.5,286047002.1,N
1550367355.4,286047002.6,N
1550367375.2,286046999.5,N
1550367395.0,286046997.9,N
1550367395.9,286046997.9,N
1550367415.2,286046995.0,N
1550367435.1,286047000.5,N
1550367436.0,286047000.5,N
1550367455.8,286047000.7,N
1550367475.7,286047001.1,N
1550367495.5,286046999.5,N
1550367515.4,286046995.7,N
1550367535.2,286046997.2,N
1550367555.0,286047000.2,N
1550367555.9,286047000.2,N
1550367575.8,286047000.8,N
1550367595.6,286047000.8,N
1550367615.4,286046999.1,N
1550367635.3,286046997.3,N
1550367655.1,286046996.9,N
1550367675.9,286047001.1,N
1550367695.7,286047003.6,N
1550367715.5,286047005.5,N
1550367735.4,286047004.3,N
1550367755.2,286047004.2,N
1550367775.0,286047001.4,N
1550367775.9,286047001.4,N
1550367795.8,286047001.3,N
1550367815.6,286047001.5,N
1550367835.5,286047002.0,N
1550367855.3,286047001.2,N
1550367875.1,286046998.6,N
1550367895.9,286046999.4,N
1550367915.7,286046999.4,N
1550367935.5,286047000.8,N
1550367955.4,286047001.2,N
1550367975.2,286046997.0,N
1550367995.1,286046993.4,N
1550367996.0,286046993.4,N
1550368015.8,286046996.2,N
1550368035.6,286046997.5,N
1550368055.5,286046995.4,N
1550368075.3,286046995.5,N
1550368095.2,286046993.5,N
1550368115.9,286046993.4,N
1550368135.7,286046993.8,N
1550368155.6,286046995.2,N
1550368175.4,286046998.7,N
1550368195.2,286047000.2,N
1550368215.1,286046998.1,N
1550368216.0,286046998.1,N
1550368235.8,286046997.3,N
1550368255.7,286047001.1,N
1550368275.5,286047002.3,N
1550368295.3,286047002.7,N
1550368315.2,286047002.3,N
1550368335.0,286047002.8,N
1550368335.9,286047002.8,N
1550368355.7,286047004.3,N
1550368375.6,286047002.3,N
1550368395.4,286046999.7,N
1550368415.9,286047004.3,N
1550368435.7,286047002.5,N
1550368455.6,286047000.6,N
1550368475.4,286046998.3,N
1550368495.3,286046999.4,N
1550368515.1,286046997.0,N
1550368516.0,286046997.0,N
1550368535.8,286046998.9,N
1550368555.7,286046998.2,N
1550368575.5,286046996.5,N
1550368595.3,286046998.2,N
1550368615.2,286046999.7,N
1550368635.0,286047000.1,N
1550368635.9,286047000.1,N
1550368655.8,286047000.4,N
1550368675.6,286046997.5,N
1550368695.4,286046999.5,N
1550368715.3,286046995.2,N
1550368735.1,286046997.5,N
1550368755.9,286046997.6,N
1550368775.7,286046997.3,N
1550368795.5,286046998.6,N
